When you browse on this site, cookies collect data to enhance your experience and personalize the content and advertising you see.
Visit our Privacy Policy to learn more. By continuing to use the site, you agree to this use of cookies and data.
  • In Belgium
  • List of Countries
  • For 7 days
  • Water Temperature
  • Satellite Maps
  • Weather Map
  • Weather Widgets
  • user-avatar
    Login

    Hourly Weather Etchmiadzin

    Today, 23 March, Saturday

    Time Temperature Precipitation Wind Pressure Humidity
    00:00 +6°C° 0 mm 1 mps 688 mmHg 45%
    01:00 +6°C° 0 mm 1 mps 688 mmHg 47%
    02:00 +5°C° 0 mm 1 mps 688 mmHg 48%
    03:00 +5°C° 0 mm 1 mps 687 mmHg 51%
    04:00 +5°C° 0 mm 1 mps 687 mmHg 52%
    05:00 +4°C° 0 mm 1 mps 687 mmHg 53%
    06:00 +4°C° 0 mm 1 mps 687 mmHg 54%
    07:00 +4°C° 0 mm 2 mps 686 mmHg 49%
    08:00 +6°C° 0 mm 2 mps 686 mmHg 44%
    09:00 +7°C° 0 mm 3 mps 686 mmHg 40%
    10:00 +8°C° 0 mm 3 mps 685 mmHg 38%
    11:00 +9°C° 0 mm 3 mps 685 mmHg 37%
    12:00 +10°C° 0 mm 3 mps 684 mmHg 36%
    13:00 +10°C° 0 mm 3 mps 684 mmHg 36%
    14:00 +11°C° 0 mm 3 mps 683 mmHg 36%
    15:00 +11°C° 0 mm 3 mps 683 mmHg 38%
    16:00 +10°C° 0 mm 3 mps 683 mmHg 39%
    17:00 +10°C° 0 mm 3 mps 682 mmHg 40%
    18:00 +9°C° 0 mm 3 mps 682 mmHg 42%
    19:00 +9°C° 0 mm 3 mps 682 mmHg 43%
    20:00 +8°C° 0 mm 3 mps 683 mmHg 44%
    21:00 +7°C° 0 mm 3 mps 683 mmHg 45%
    22:00 +7°C° 0 mm 3 mps 683 mmHg 46%
    23:00 +5°C° 0 mm 3 mps 682 mmHg 48%

    Tomorrow, 24 March, Sunday

    Time Temperature Precipitation Wind Pressure Humidity
    00:00 +5°C° 0 mm 3 mps 682 mmHg 49%
    01:00 +5°C° 0.1 mm 3 mps 682 mmHg 51%
    02:00 +5°C° 0.1 mm 3 mps 681 mmHg 54%
    03:00 +5°C° 0.1 mm 3 mps 681 mmHg 57%
    04:00 +6°C° 0.4 mm 2 mps 681 mmHg 59%
    05:00 +6°C° 0.4 mm 2 mps 681 mmHg 61%
    06:00 +6°C° 0.4 mm 2 mps 681 mmHg 63%
    07:00 +6°C° 0.3 mm 2 mps 681 mmHg 61%
    08:00 +7°C° 0.3 mm 2 mps 681 mmHg 58%
    09:00 +8°C° 0.3 mm 2 mps 681 mmHg 55%
    10:00 +8°C° 0.3 mm 2 mps 680 mmHg 54%
    11:00 +10°C° 0.3 mm 1 mps 680 mmHg 53%
    12:00 +10°C° 0.3 mm 1 mps 680 mmHg 51%
    13:00 +10°C° 0.1 mm 2 mps 680 mmHg 50%
    14:00 +10°C° 0.1 mm 2 mps 680 mmHg 49%
    15:00 +11°C° 0.1 mm 3 mps 679 mmHg 48%
    16:00 +10°C° 0.2 mm 3 mps 680 mmHg 50%
    17:00 +9°C° 0.2 mm 3 mps 680 mmHg 52%
    18:00 +8°C° 0.2 mm 3 mps 680 mmHg 54%
    19:00 +8°C° 0.2 mm 3 mps 681 mmHg 56%
    20:00 +7°C° 0.2 mm 3 mps 681 mmHg 57%
    21:00 +7°C° 0.2 mm 3 mps 682 mmHg 58%
    22:00 +5°C° 0.1 mm 3 mps 682 mmHg 59%
    23:00 +5°C° 0.1 mm 3 mps 682 mmHg 59%

    Day after tomorrow, 25 March, Monday

    Time Temperature Precipitation Wind Pressure Humidity
    00:00 +4°C° 0.1 mm 3 mps 682 mmHg 59%
    01:00 +4°C° 0 mm 3 mps 681 mmHg 59%
    02:00 +4°C° 0 mm 3 mps 681 mmHg 59%
    03:00 +3°C° 0 mm 3 mps 681 mmHg 59%
    04:00 +3°C° 0 mm 3 mps 681 mmHg 59%
    05:00 +3°C° 0 mm 3 mps 681 mmHg 58%
    06:00 +3°C° 0 mm 3 mps 681 mmHg 58%
    07:00 +4°C° 0 mm 3 mps 681 mmHg 55%
    08:00 +7°C° 0 mm 3 mps 681 mmHg 51%
    09:00 +8°C° 0 mm 3 mps 681 mmHg 48%
    10:00 +9°C° 0 mm 3 mps 680 mmHg 46%
    11:00 +11°C° 0 mm 3 mps 680 mmHg 44%
    12:00 +13°C° 0 mm 2 mps 680 mmHg 42%
    13:00 +13°C° 0 mm 2 mps 679 mmHg 41%
    14:00 +13°C° 0 mm 2 mps 679 mmHg 41%
    15:00 +13°C° 0 mm 2 mps 679 mmHg 41%
    16:00 +13°C° 0 mm 2 mps 680 mmHg 43%
    17:00 +12°C° 0 mm 2 mps 680 mmHg 45%
    18:00 +12°C° 0 mm 2 mps 680 mmHg 46%
    19:00 +10°C° 0.1 mm 2 mps 681 mmHg 49%
    20:00 +9°C° 0.1 mm 2 mps 682 mmHg 51%
    21:00 +8°C° 0.1 mm 2 mps 682 mmHg 54%
    22:00 +8°C° 0.1 mm 2 mps 682 mmHg 55%
    23:00 +8°C° 0.1 mm 2 mps 683 mmHg 57%

    26 March, Tuesday

    Time Temperature Precipitation Wind Pressure Humidity
    00:00 +8°C° 0.1 mm 1 mps 683 mmHg 58%
    01:00 +8°C° 0 mm 1 mps 683 mmHg 59%
    02:00 +7°C° 0 mm 1 mps 683 mmHg 60%
    03:00 +7°C° 0 mm 1 mps 683 mmHg 62%
    04:00 +7°C° 0 mm 1 mps 683 mmHg 62%
    05:00 +6°C° 0 mm 1 mps 683 mmHg 63%
    06:00 +6°C° 0 mm 1 mps 683 mmHg 64%
    07:00 +7°C° 0.1 mm 1 mps 684 mmHg 61%
    08:00 +7°C° 0.1 mm 0 mps 684 mmHg 57%
    09:00 +8°C° 0.1 mm 0 mps 684 mmHg 54%
    10:00 +9°C° 0 mm 0 mps 684 mmHg 51%
    11:00 +10°C° 0 mm 0 mps 683 mmHg 48%
    12:00 +12°C° 0 mm 1 mps 683 mmHg 45%
    13:00 +13°C° 0 mm 1 mps 683 mmHg 43%
    14:00 +14°C° 0 mm 1 mps 683 mmHg 42%
    15:00 +14°C° 0 mm 1 mps 682 mmHg 40%
    16:00 +14°C° 0 mm 1 mps 682 mmHg 42%
    17:00 +13°C° 0 mm 1 mps 683 mmHg 43%
    18:00 +13°C° 0 mm 1 mps 683 mmHg 44%
    19:00 +12°C° 0 mm 1 mps 683 mmHg 47%
    20:00 +11°C° 0 mm 1 mps 683 mmHg 49%
    21:00 +10°C° 0 mm 1 mps 684 mmHg 52%
    22:00 +10°C° 0 mm 1 mps 683 mmHg 53%
    23:00 +9°C° 0 mm 1 mps 683 mmHg 55%

    27 March, Wednesday

    Time Temperature Precipitation Wind Pressure Humidity
    00:00 +9°C° 0 mm 1 mps 683 mmHg 57%
    01:00 +8°C° 0 mm 1 mps 683 mmHg 58%
    02:00 +8°C° 0 mm 1 mps 683 mmHg 59%
    03:00 +7°C° 0 mm 0 mps 683 mmHg 60%
    04:00 +6°C° 0 mm 0 mps 683 mmHg 61%
    05:00 +6°C° 0 mm 0 mps 683 mmHg 62%
    06:00 +7°C° 0 mm 1 mps 683 mmHg 63%
    07:00 +8°C° 0.1 mm 1 mps 683 mmHg 59%
    08:00 +9°C° 0.1 mm 1 mps 683 mmHg 55%
    09:00 +10°C° 0.1 mm 1 mps 683 mmHg 51%
    10:00 +11°C° 0 mm 1 mps 683 mmHg 48%
    11:00 +12°C° 0 mm 1 mps 683 mmHg 45%
    12:00 +13°C° 0 mm 2 mps 683 mmHg 42%
    13:00 +14°C° 0 mm 2 mps 683 mmHg 41%
    14:00 +14°C° 0 mm 2 mps 683 mmHg 40%
    15:00 +15°C° 0 mm 2 mps 683 mmHg 39%
    16:00 +14°C° 0 mm 2 mps 683 mmHg 40%
    17:00 +14°C° 0 mm 2 mps 683 mmHg 42%
    18:00 +13°C° 0 mm 2 mps 683 mmHg 43%
    19:00 +12°C° 0.1 mm 2 mps 684 mmHg 46%
    20:00 +12°C° 0.1 mm 2 mps 684 mmHg 48%
    21:00 +10°C° 0.1 mm 2 mps 685 mmHg 50%
    22:00 +10°C° 0.1 mm 1 mps 685 mmHg 51%
    23:00 +10°C° 0.1 mm 1 mps 685 mmHg 53%

    28 March, Thursday

    Time Temperature Precipitation Wind Pressure Humidity
    00:00 +9°C° 0.1 mm 1 mps 685 mmHg 54%
    01:00 +9°C° 0.1 mm 1 mps 685 mmHg 56%
    02:00 +8°C° 0.1 mm 1 mps 685 mmHg 58%
    03:00 +7°C° 0.1 mm 0 mps 684 mmHg 59%
    04:00 +7°C° 0.1 mm 0 mps 685 mmHg 60%
    05:00 +7°C° 0.1 mm 0 mps 685 mmHg 61%
    06:00 +6°C° 0.1 mm 0 mps 685 mmHg 62%
    07:00 +7°C° 0.1 mm 0 mps 685 mmHg 58%
    08:00 +9°C° 0.1 mm 1 mps 686 mmHg 55%
    09:00 +10°C° 0.1 mm 1 mps 686 mmHg 51%
    10:00 +11°C° 0.1 mm 1 mps 686 mmHg 49%
    11:00 +11°C° 0.1 mm 1 mps 686 mmHg 47%
    12:00 +12°C° 0.1 mm 1 mps 686 mmHg 45%
    13:00 +12°C° 0.1 mm 1 mps 685 mmHg 44%
    14:00 +12°C° 0.1 mm 2 mps 685 mmHg 44%
    15:00 +13°C° 0.1 mm 2 mps 685 mmHg 43%
    16:00 +12°C° 0.1 mm 1 mps 685 mmHg 45%
    17:00 +12°C° 0.1 mm 1 mps 685 mmHg 46%
    18:00 +11°C° 0.1 mm 1 mps 686 mmHg 47%
    19:00 +11°C° 0.1 mm 1 mps 686 mmHg 49%
    20:00 +10°C° 0.1 mm 1 mps 686 mmHg 51%
    21:00 +10°C° 0.1 mm 1 mps 686 mmHg 54%
    22:00 +9°C° 0.1 mm 1 mps 686 mmHg 55%
    23:00 +9°C° 0.1 mm 1 mps 686 mmHg 57%
    Show more